STARLINK-33984, 63830

Orbit data source: Space-Track

STARLINK-33984, 63830 is a payload satellite owned by SpaceX/Seattle (US) in LEO that was launched on Sun, 04 May 2025 UTC via an FALCON 9 launch vehicle from the Air Force Eastern Test Range (AFETR). Payload-class satellites include a variety of spacecraft equipped with specific instruments for various scientific and technological missions. These include communications satellites like Starlink; space stations such as the ISS; scientific satellites like the Hubble; Earth observation satellites from companies like Planet Labs, Umbra, and HawkEye 360; GPS; miniature CubeSats for education and research; and military/defense satellites.

Loading next visibility...
Identifier
63830, 2025-092AC
Orbit
LEO
Country
Flag of USUS
Related business
Manufacturer
SpaceX/Seattle
Mission
Operational spacecraft
Bus & Motor
STARLINK V2MO, Unknown motor
Mass
575 kg wet, ~530 kg dry
Launch date (UTC)
2025-05-04 (6 months ago)
Launch vehicle
FALCON 9
Launch site
Air Force Eastern Test Range (AFETR)
Object type
Payload
Rocket body
Debris
Shape & HBR
Unknown shape, 17.7 m
Radar Cross Section
Large (>1 m²)

Expand to show TLE details & history
Last TLE update: 21 hours ago

TLE from 21 hours ago
0 STARLINK-33984
1 63830U 25092AC  25310.61924898  .00036736  00000-0  13368-2 0  9994
2 63830  42.9996 147.4787 0001637 264.9594  95.1071 15.27606017 29790
Epoch: 2025-11-06T14:51Z
TLE epoch observation values (Epoch: 2025-11-06T14:51:43.111Z)
Latitude
-0.00002°
Longitude
-121.52592°
Altitude
482.847 km
Speed
7.626 km/s
True Right ascension
09h 49m 54s
True Declination
0° 00' 00"
Sunlit
Object was in daylight at epoch
Visualization orbit readout
Latitude
Unknown
Longitude
Unknown
Altitude
Unknown
Speed
Unknown
Apparent Right ascension
Unknown
Apparent Declination
Unknown
Sunlit
N/A
Visualization observer readout
Local Sidereal Time
07:47:52
Azimuth
Unknown
Elevation
Unknown
Doppler factor
Unknown
Orbital elements
Apogee altitude
486.04 km
Perigee altitude
483.793 km
Semi-major axis
6,863.053 km
Eccentricity
0.00016
Inclination
42.9996°
RAAN
147.4787°
Arg. of periapsis
264.9594°
True anomaly
95.12578°
Mean anomaly
95.1071°
Eccentric anomaly
95.11644°
Mean motion
3.81739 °/min
Orbital period
94.31 mins
BSTAR
0.0013368
Loading maneuver chart data...
Computing Atmospheric mass density...
Loading historical data...
Loading historical data...
Loading historical data...
Loading historical data...
Loading historical data...
Loading historical data...
Loading historical data...

Documentation

Showing up to 5 results
|